{"data":{"norad_id":67218,"epoch":"2026-05-24T23:39:50.190912Z","epoch_age_seconds":69561,"freshness":"FRESH","line1":"1 67218U 25304AC  26144.98599758  .00000498  00000+0  49533-4 0  9993","line2":"2 67218  70.0014 342.0604 0002584 266.2676  93.8188 14.98335061 25285","mean_motion":14.98335061,"eccentricity":0.0002584,"inclination_deg":70.0014,"raan_deg":342.0604,"arg_perigee_deg":266.2676,"mean_anomaly_deg":93.8188,"bstar":4.9533e-5,"rev_number":2528,"period_min":96.106674500357,"perigee_km":570.24431446457,"apogee_km":573.83616606234,"semimajor_km":6950.1772402635,"source":"CELESTRAK","updated_at":"2026-05-25T13:38:21.513882Z"}}